Location: Partizánske
(48.6285°N, 18.3769°E)
Time: 03:52:11
(UTC+01:00)

ISS - Pass Details

Date: 06 December 2021
Orbit: 413 x 422 km, 51.6° (Epoch: 27 January)

Event Time Altitude Azimuth Distance (km) Brightness Sun altitude
Rises 16:13:11 0° 290° (WNW) 2,390 0.7 -3.9°
Reaches altitude 10° 16:15:18 10° 291° (WNW) 1,521 -0.3 -4.2°
Maximum altitude 16:18:43 80° 19° (NNE) 437 -3.7 -4.7°
Drops below altitude 10° 16:22:07 10° 107° (ESE) 1,510 -1.3 -5.2°
Enters shadow 16:24:41 -2° 109° (ESE) 2,565 -0.2 -5.6°
